• In Hungary
  • List of Countries
  • For 7 days
  • Water Temperature
  • Satellite Maps
  • Weather Map
  • News
  • Weather Widgets
  • user-avatar
    Login

    Hourly Weather SanFrancisco

    Today, 21 February, Wednesday

    Time Temperature Precipitation Wind Pressure Humidity
    00:00 +30°C° 0 mm 4 mps 751 mmHg 42%
    01:00 +30°C° 0 mm 4 mps 751 mmHg 42%
    02:00 +29°C° 0 mm 4 mps 751 mmHg 45%
    03:00 +28°C° 0 mm 4 mps 751 mmHg 48%
    04:00 +28°C° 0 mm 5 mps 751 mmHg 51%
    05:00 +28°C° 0 mm 5 mps 752 mmHg 54%
    06:00 +28°C° 0 mm 5 mps 752 mmHg 56%
    07:00 +28°C° 0 mm 6 mps 753 mmHg 58%
    08:00 +30°C° 0 mm 6 mps 753 mmHg 52%
    09:00 +32°C° 0 mm 6 mps 753 mmHg 46%
    10:00 +34°C° 0 mm 6 mps 753 mmHg 41%
    11:00 +35°C° 0 mm 6 mps 753 mmHg 37%
    12:00 +36°C° 0 mm 5 mps 752 mmHg 33%
    13:00 +37°C° 0 mm 5 mps 751 mmHg 30%
    14:00 +39°C° 0 mm 5 mps 750 mmHg 29%
    15:00 +39°C° 0 mm 5 mps 749 mmHg 28%
    16:00 +39°C° 0 mm 5 mps 749 mmHg 28%
    17:00 +36°C° 0 mm 4 mps 749 mmHg 30%
    18:00 +35°C° 0 mm 3 mps 749 mmHg 33%
    19:00 +32°C° 0 mm 2 mps 749 mmHg 36%
    20:00 +32°C° 0 mm 2 mps 750 mmHg 37%
    21:00 +31°C° 0 mm 3 mps 750 mmHg 38%
    22:00 +31°C° 0 mm 3 mps 751 mmHg 40%
    23:00 +30°C° 0 mm 3 mps 751 mmHg 41%

    Tomorrow, 22 February, Thursday

    Time Temperature Precipitation Wind Pressure Humidity
    00:00 +30°C° 0 mm 4 mps 751 mmHg 42%
    01:00 +29°C° 0 mm 4 mps 751 mmHg 43%
    02:00 +29°C° 0 mm 4 mps 751 mmHg 46%
    03:00 +28°C° 0 mm 5 mps 751 mmHg 49%
    04:00 +27°C° 0 mm 5 mps 752 mmHg 52%
    05:00 +27°C° 0 mm 5 mps 752 mmHg 54%
    06:00 +27°C° 0 mm 6 mps 752 mmHg 55%
    07:00 +27°C° 0 mm 6 mps 753 mmHg 57%
    08:00 +29°C° 0 mm 6 mps 753 mmHg 51%
    09:00 +32°C° 0 mm 6 mps 753 mmHg 46%
    10:00 +34°C° 0 mm 6 mps 754 mmHg 40%
    11:00 +35°C° 0 mm 6 mps 753 mmHg 36%
    12:00 +37°C° 0 mm 5 mps 752 mmHg 32%
    13:00 +39°C° 0 mm 5 mps 751 mmHg 28%
    14:00 +39°C° 0 mm 5 mps 750 mmHg 27%
    15:00 +39°C° 0 mm 5 mps 749 mmHg 26%
    16:00 +39°C° 0 mm 5 mps 748 mmHg 26%
    17:00 +37°C° 0 mm 4 mps 748 mmHg 28%
    18:00 +35°C° 0 mm 3 mps 748 mmHg 30%
    19:00 +34°C° 0 mm 3 mps 748 mmHg 32%
    20:00 +33°C° 0 mm 3 mps 749 mmHg 33%
    21:00 +31°C° 0 mm 3 mps 750 mmHg 34%
    22:00 +31°C° 0 mm 3 mps 750 mmHg 36%
    23:00 +30°C° 0 mm 3 mps 750 mmHg 38%

    Day after tomorrow, 23 February, Friday

    Time Temperature Precipitation Wind Pressure Humidity
    00:00 +30°C° 0 mm 4 mps 750 mmHg 41%
    01:00 +30°C° 0 mm 5 mps 750 mmHg 44%
    02:00 +29°C° 0 mm 5 mps 750 mmHg 47%
    03:00 +28°C° 0 mm 5 mps 750 mmHg 51%
    04:00 +28°C° 0 mm 5 mps 750 mmHg 54%
    05:00 +28°C° 0 mm 5 mps 751 mmHg 55%
    06:00 +28°C° 0 mm 6 mps 752 mmHg 56%
    07:00 +28°C° 0 mm 6 mps 752 mmHg 57%
    08:00 +29°C° 0 mm 6 mps 752 mmHg 52%
    09:00 +32°C° 0 mm 6 mps 753 mmHg 47%
    10:00 +34°C° 0 mm 6 mps 753 mmHg 41%
    11:00 +35°C° 0 mm 6 mps 752 mmHg 37%
    12:00 +37°C° 0 mm 5 mps 751 mmHg 33%
    13:00 +39°C° 0 mm 5 mps 749 mmHg 29%
    14:00 +39°C° 0 mm 5 mps 749 mmHg 28%
    15:00 +39°C° 0 mm 5 mps 748 mmHg 27%
    16:00 +39°C° 0 mm 5 mps 747 mmHg 26%
    17:00 +37°C° 0 mm 4 mps 747 mmHg 28%
    18:00 +35°C° 0 mm 3 mps 747 mmHg 31%
    19:00 +34°C° 0 mm 3 mps 748 mmHg 33%
    20:00 +33°C° 0 mm 3 mps 748 mmHg 34%
    21:00 +33°C° 0 mm 3 mps 749 mmHg 35%
    22:00 +31°C° 0 mm 3 mps 749 mmHg 36%
    23:00 +31°C° 0 mm 3 mps 749 mmHg 37%

    24 February, Saturday

    Time Temperature Precipitation Wind Pressure Humidity
    00:00 +30°C° 0 mm 4 mps 749 mmHg 39%
    01:00 +30°C° 0 mm 4 mps 749 mmHg 40%
    02:00 +29°C° 0 mm 4 mps 749 mmHg 44%
    03:00 +28°C° 0 mm 4 mps 749 mmHg 47%
    04:00 +28°C° 0 mm 5 mps 749 mmHg 51%
    05:00 +28°C° 0 mm 5 mps 750 mmHg 53%
    06:00 +28°C° 0 mm 5 mps 750 mmHg 55%
    07:00 +28°C° 0 mm 5 mps 751 mmHg 56%
    08:00 +30°C° 0 mm 5 mps 751 mmHg 51%
    09:00 +32°C° 0 mm 5 mps 751 mmHg 46%
    10:00 +34°C° 0 mm 5 mps 752 mmHg 41%
    11:00 +36°C° 0 mm 5 mps 750 mmHg 36%
    12:00 +37°C° 0 mm 5 mps 749 mmHg 31%
    13:00 +40°C° 0 mm 5 mps 748 mmHg 27%
    14:00 +40°C° 0 mm 4 mps 747 mmHg 26%
    15:00 +40°C° 0 mm 4 mps 747 mmHg 26%
    16:00 +40°C° 0 mm 4 mps 746 mmHg 26%
    17:00 +37°C° 0 mm 4 mps 746 mmHg 28%
    18:00 +36°C° 0 mm 3 mps 747 mmHg 31%
    19:00 +34°C° 0 mm 2 mps 747 mmHg 34%
    20:00 +34°C° 0 mm 2 mps 748 mmHg 35%
    21:00 +32°C° 0 mm 2 mps 748 mmHg 36%
    22:00 +32°C° 0 mm 2 mps 749 mmHg 37%
    23:00 +31°C° 0 mm 3 mps 749 mmHg 39%

    25 February, Sunday

    Time Temperature Precipitation Wind Pressure Humidity
    00:00 +32°C° 0 mm 4 mps 749 mmHg 41%
    01:00 +30°C° 0 mm 4 mps 749 mmHg 43%
    02:00 +30°C° 0 mm 4 mps 749 mmHg 46%
    03:00 +29°C° 0 mm 4 mps 749 mmHg 48%
    04:00 +28°C° 0 mm 5 mps 749 mmHg 51%
    05:00 +28°C° 0 mm 5 mps 750 mmHg 53%
    06:00 +28°C° 0 mm 5 mps 751 mmHg 55%
    07:00 +28°C° 0 mm 6 mps 751 mmHg 57%
    08:00 +30°C° 0 mm 5 mps 752 mmHg 52%
    09:00 +33°C° 0 mm 5 mps 752 mmHg 48%
    10:00 +34°C° 0 mm 5 mps 752 mmHg 43%
    11:00 +36°C° 0 mm 5 mps 751 mmHg 39%
    12:00 +37°C° 0 mm 5 mps 750 mmHg 35%
    13:00 +40°C° 0 mm 4 mps 749 mmHg 30%
    14:00 +40°C° 0 mm 4 mps 748 mmHg 30%
    15:00 +40°C° 0 mm 4 mps 747 mmHg 29%
    16:00 +38°C° 0 mm 4 mps 746 mmHg 29%
    17:00 +37°C° 0 mm 4 mps 747 mmHg 31%
    18:00 +36°C° 0 mm 3 mps 747 mmHg 34%
    19:00 +35°C° 0 mm 2 mps 748 mmHg 36%
    20:00 +34°C° 0 mm 3 mps 748 mmHg 38%
    21:00 +34°C° 0 mm 3 mps 749 mmHg 39%
    22:00 +33°C° 0 mm 3 mps 750 mmHg 40%
    23:00 +33°C° 0 mm 3 mps 749 mmHg 42%

    26 February, Monday

    Time Temperature Precipitation Wind Pressure Humidity
    00:00 +32°C° 0 mm 4 mps 749 mmHg 43%
    01:00 +32°C° 0 mm 4 mps 749 mmHg 44%
    02:00 +30°C° 0 mm 4 mps 749 mmHg 47%
    03:00 +29°C° 0 mm 4 mps 749 mmHg 50%
    04:00 +29°C° 0 mm 5 mps 750 mmHg 53%
    05:00 +28°C° 0 mm 5 mps 750 mmHg 55%
    06:00 +28°C° 0 mm 5 mps 751 mmHg 56%
    07:00 +28°C° 0 mm 6 mps 752 mmHg 58%
    08:00 +30°C° 0 mm 6 mps 752 mmHg 53%
    09:00 +33°C° 0 mm 6 mps 752 mmHg 48%
    10:00 +35°C° 0 mm 6 mps 752 mmHg 43%
    11:00 +36°C° 0 mm 5 mps 751 mmHg 39%
    12:00 +39°C° 0 mm 5 mps 750 mmHg 35%
    13:00 +40°C° 0 mm 5 mps 749 mmHg 30%
    14:00 +40°C° 0 mm 5 mps 748 mmHg 30%
    15:00 +40°C° 0 mm 5 mps 747 mmHg 30%
    16:00 +40°C° 0 mm 5 mps 747 mmHg 29%
    17:00 +38°C° 0 mm 4 mps 747 mmHg 32%
    18:00 +36°C° 0 mm 3 mps 747 mmHg 35%
    19:00 +35°C° 0 mm 3 mps 748 mmHg 37%
    20:00 +34°C° 0 mm 3 mps 748 mmHg 39%
    21:00 +34°C° 0 mm 3 mps 749 mmHg 40%
    22:00 +33°C° 0 mm 3 mps 749 mmHg 42%
    23:00 +33°C° 0 mm 3 mps 749 mmHg 43%
    Show more